Regional Weather Roundup
Issued by NWS Northern Indiana

Home | Current Version | Previous Version | Text Only | Print | Product List | Glossary Off
Versions: 1 2 3 4 5 6 7 8 9 10 11 12 13 14 15 16 17 18 19 20 21 22 23 24 25 26 27 28 29 30 31 32 33 34 35 36 37 38 39 40 41 42 43 44 45 46 47 48 49 50

000
ASUS43 KIWX 281910
RWRIWX

KIWX WEATHER ROUNDUP
NATIONAL WEATHER SERVICE NORTHERN INDIANA
300 PM EDT THU JUL 28 2016

NOTE: "FAIR" INDICATES FEW OR NO CLOUDS BELOW 12,000 FEET WITH NO
SIGNIFICANT WEATHER AND/OR OBSTRUCTIONS TO VISIBILITY.

* THESE STATIONS ARE NOT UNDER NWS QUALITY CONTROL. THEY ALSO MAY NOT
  REPORT WEATHER SUCH AS PRECIPITATION OR FOG.

INZ001>027-282000-
NORTHERN INDIANA

CITY           SKY/WX    TMP DP  RH WIND       PRES   REMARKS
GARY*          PTSUNNY   84  72  65 NE9       29.87F
VALPARAISO     MOSUNNY   86  67  52 S10       29.88F
MICHIGAN CITY* PTSUNNY   81  70  69 N5        29.88F
LAPORTE*       PTSUNNY   85  69  57 S3        29.89F
KNOX*          SUNNY     84  54  34 SE3       29.89S
SOUTH BEND       N/A    N/A N/A N/A MISG      29.89F
GOSHEN         CLOUDY    87  63  44 E6        29.89F
MONTICELLO*    PTSUNNY   82  66  58 CALM      29.88F
LOGANSPORT*    CLOUDY    81  68  65 CALM      29.89F
ROCHESTER*     CLOUDY    86  70  58 NE6       29.89F
WARSAW*        CLOUDY    82  68  61 E5        29.89F
ANGOLA*          N/A     82  75  78 NE5       29.91S
FORT WAYNE     CLOUDY    85  66  53 SE6       29.88F
HUNTINGTON*    CLOUDY    82  66  59 CALM      29.89S
PERU/GRISSOM   CLOUDY    85  67  55 SE6       29.87
MARION*        PTSUNNY   82  68  63 CALM      29.89F HAZE

$$
INZ028>050-282000-
CENTRAL INDIANA

CITY           SKY/WX    TMP DP  RH WIND       PRES   REMARKS
LAFAYETTE      MOSUNNY   83  70  64 VRB3      29.87F
KOKOMO*        CLOUDY    84  66  54 NE3       29.89S
MUNCIE*        CLOUDY    86  68  54 N5        29.88F
INDIANAPOLIS   CLOUDY    85  68  56 CALM      29.89F

$$
MIZ043>046-050>051-056>058-064>065-071>073-077>080-282000-
SOUTHWEST LOWER MICHIGAN

CITY           SKY/WX    TMP DP  RH WIND       PRES   REMARKS
BATTLE CREEK   MOSUNNY   81  67  62 NE8       29.91F
BENTON HARBOR  CLOUDY    82  70  66 NW6       29.88S
COLDWATER*     PTSUNNY   81  68  64 E6        29.91F
HILLSDALE*     PTSUNNY   82  64  55 NE5       29.91F
HOLLAND        SUNNY     85  67  54 MISG      29.90F
GRAND RAPIDS   CLOUDY    83  65  54 E8        29.91F
KALAMAZOO      PTSUNNY   85  66  53 NE6       29.90F
STURGIS*       CLOUDY    82  68  62 NE6       29.89F
THREE RIVERS*  FAIR      84  66  55 E7        29.90F

$$
OHZ001>008-015>018-024>025-282000-
NORTHWEST OHIO

CITY           SKY/WX    TMP DP  RH WIND       PRES   REMARKS
DEFIANCE       CLOUDY    85  68  56 E8        29.89F
FINDLAY        CLOUDY    88  62  41 CALM      29.87F
TOLEDO EXPRESS CLOUDY    83  69  62 NE5       29.89S
TOLEDO METCALF PTSUNNY   84  70  62 NE9       29.90S
LIMA           CLOUDY    86  64  47 S3        29.88F

$$
AND FOR LAKE MICHIGAN COASTAL AND OPEN LAKE BUOY OBSERVATIONS

STATION/POSITION TEMP    WIND        PRES    VSBY  WAVE
                 AIR SEA DIR/SP/G                  HT/PER
                 (F)     (DEG/KT/KT) (MB)    (MI)  (FT/S)
CALUMET HARBOR    79      40/  7/  8 1011.3F
MICHIGAN CITY     79     350/  7/  8   N/A
BURNS HARBOR      79      30/  8/  8 1012.2F
SAINT JOSEPH      81     360/  7/  9 1012.5F
SOUTH LAKE BUOY   75 77   80/  4/  4 1012.0          1/ 4
4 MI NW BRIDGMAN  77 79  360/  6/  8 1011.3F         1
MICHIGAN CITY     79 79   10/  8/  8   N/A           0

$$
&&




USA.gov is the U.S. government's official web portal to all federal, state and local government web resources and services.